STARLINK-36135

Last updated on Fri Dec 19 2025 00:02:09 GMT+0000 (Coordinated Universal Time)

1 66986U 25288AD 25352.58336806 -.01568254 00000+0 -68624-2 0 9996 2 66986 43.0011 131.2692 0001488 266.8191 358.3852 15.86412688 2773
UTC large
Height (km)
Speed (km/s)
/
Latitude / Longitude
Inclination (degrees)
Orbital Period (minutes)
Azimuth
Elevation
Range (km)
Doppler Factor

Next 0 passes for location: London (51.5072 / 0.1276)

Sorry there are no passes over London.